User: anonymous   Login
Location: Unspecified
(40.7945°N, 0.0000°E)
Time: 00:25:49
(UTC+00:00)
Language:

Explorer 7 - Orbit

View from above orbital plane
View from above orbital plane
View from above satellite
View from above satellite

Ground track
Ground track

The orbit data is extracted from the following two-line orbital elements,

1 00022U 59009A   21138.51071640  .00000604  00000-0  67659-4 0  9993
2 00022  50.2841 329.5353 0138585  99.2232 262.4420 14.95554053520506
Epoch (UTC): 18 May 2021 12:15:25
Eccentricity: 0.0138585
inclination: 50.2841°
perigee height: 484 km
apogee height: 677 km
right ascension of ascending node: 329.5353°
argument of perigee: 99.2232°
revolutions per day: 14.95554053
mean anomaly at epoch: 262.4420°
orbit number at epoch: 52050

The dashed part of the orbit path shows where the satellite is in the earth's shadow,  

DLR